Location: ????????
(55.3939°N, 37.4780°E)
Time: 08:03:33
(UTC+00:00)

Cosmos 2228 - Pass Details

Date: 14 April 2026
Orbit: 561 x 588 km, 82.5° (Epoch: 12 May)

Event Time Altitude Azimuth Distance (km) Brightness Sun altitude
Exits shadow 22:52:09 40° 284° (WNW) 875 3.7 -22.7°
Maximum altitude 22:52:17 40° 290° (WNW) 873 3.7 -22.7°
Drops below altitude 10° 22:56:16 10° 0° (N) 1,910 6.5 -22.5°
Sets 22:58:35 0° 8° (N) 2,809 7.8 -22.4°
